Regional Weather Roundup
Issued by NWS

Home | Current Version | Previous Version | Graphics & Text | Print | Product List | Glossary On
Versions: 1 2 3 4 5 6 7 8 9 10 11 12 13 14 15 16 17 18 19 20 21 22 23 24 25 26 27 28 29 30 31 32 33 34 35 36 37 38 39 40 41 42 43 44 45 46 47 48 49 50
000
ASUS45 KTFX 191419
RWRMT
MONTANA HOURLY WEATHER ROUNDUP
NATIONAL WEATHER SERVICE GREAT FALLS MT
719 AM MST FRI DEC 19 2014

NOTE: "FAIR" INDICATES FEW OR NO CLOUDS BELOW 12000 FEET WITH NO
SIGNIFICANT WEATHER AND/OR OBSTRUCTIONS TO VISIBILITY.

* THESE STATIONS ARE NOT UNDER NWS QUALITY CONTROL. THEY DO NOT
   REPORT WEATHER SUCH AS PRECIPITATION OR FOG.

MTZ001>007-043-191500-
WEST OF THE DIVIDE
CITY           SKY/WX    TMP DP  RH WIND       PRES   REMARKS
KALISPELL      FOG       30  30 100 CALM      29.91F VSB 1 1/4
MISSOULA       CLOUDY    28  28 100 CALM      29.97F
BUTTE          CLOUDY    19  16  88 CALM      29.98S
MULLAN PASS    LGT SNOW  32  28  85 VRB5      29.84S VSB M1/4 WCI  27
* ANACONDA     PTCLDY    34  23  64 SE11       N/A   WCI  26
* ESSEX        N/A       29  28  96 W1         N/A
* EUREKA APT   MOCLDY    39  32  76 S10G18    29.88F WCI  32
* HAMILTON APT PTCLDY    28  27  96 E5        29.95S WCI  22
* LIBBY APT    MOCLDY    32  30  92 CALM      29.91R VSB 3/4
* LINCOLN      N/A       29  25  85 S3         N/A
* LOOKOUT PASS N/A       33  33 100 N/A        N/A
* POLSON       N/A       34  31  89 SE1        N/A
* RONAN APT    MOCLDY    32  30  92 N/A        N/A
* SEELEY LAKE  N/A       26  25  96 N1         N/A
* THOMP F APT  PTCLDY    25  24  96 SE4G10     N/A
* YAAK HILL    N/A       34  32  92 N/A        N/A
$$

MTZ008-052>055-191500-
SOUTHWEST MONTANA
CITY           SKY/WX    TMP DP  RH WIND       PRES   REMARKS
BOZEMAN        MOCLDY    23  19  85 CALM      29.98S
DILLON         CLOUDY    28  21  75 S9        30.00R WCI  19
* W YELLOWSTON MOCLDY    26  25  96 SW2G8      N/A
* THREE FORKS  MOCLDY    37  37 100 N/A        N/A
* BOULDER HILL N/A       29  17  61 SW10G16    N/A   WCI  20
* MONIDA PASS  N/A       24  24 100 SE17       N/A   WCI  11
* RAYNOLDS PAS N/A       27   9  46 SE11       N/A   WCI  17
* WHITEHALL    N/A       30  22  72 W3G9       N/A
* WISE RIVER   N/A       24  21  88 NW2G8      N/A
$$

MTZ009>010-012-014-046-048-049-054-191500-
EAST SLOPES AND CENTRAL MONTANA
CITY           SKY/WX    TMP DP  RH WIND       PRES   REMARKS
CUT BANK       CLOUDY    27  19  72 S6        29.81F WCI  20
GREAT FALLS    CLOUDY    34  25  70 S10       29.86S WCI  26
HELENA         CLOUDY    27  23  85 CALM      29.96S
MALMSTROM AFB  MOCLDY    32  27  82 SW14      29.88F WCI  22
* CONRAD       CLOUDY    21  19  92 CALM       N/A
* DEARBORN     N/A       41  25  53 S6G13      N/A
* EAST GLACIER N/A       35  27  73 W25G31     N/A   WCI  23
* MONARCH      N/A       32  17  54 SW13G19    N/A   WCI  22
* PENDROY      N/A       28  20  72 W2         N/A
* ROGERS PASS  N/A       31  23  72 SE8G22     N/A   WCI  24
* SWEET GRASS  N/A       23  22  96 S15        N/A   WCI  10
* WHITE SULPH  N/A       31  21  66 S11G18     N/A   WCI  22
$$

MTZ011-013-016-021-035-040-045-047-050-051-191500-
NORTH CENTRAL MONTANA
CITY           SKY/WX    TMP DP  RH WIND       PRES   REMARKS
HAVRE          PTCLDY    19  18  96 NW5       29.88F WCI  12
LEWISTOWN      CLEAR     30  19  64 SW13      29.89S WCI  20
* N BAR RANCH  CLEAR     25  18  75 CALM      29.90S
* CHINOOK      CLEAR      9   7  91 CALM      29.91S
* MALTA APT    CLEAR     16  10  77 N/A        N/A
* CHESTER      N/A       14  11  88 NE3        N/A
* DENTON       N/A       26  20  78 S9         N/A   WCI  17
* GEYSER       N/A       35  21  57 W11G17     N/A   WCI  27
* JUDITH GAP   N/A       26  17  69 SW8        N/A   WCI  18
* LOMA         N/A       23  22  96 NE5        N/A   WCI  16
$$

MTZ017>020-022>027-061-062-191500-
NORTHEAST MONTANA
CITY           SKY/WX    TMP DP  RH WIND       PRES   REMARKS
GLASGOW        PTCLDY    19  16  88 CALM      29.90S
GLENDIVE       MOCLDY    25  21  85 SW6       29.94R WCI  18
JORDAN         PTCLDY    19  18  96 W6        29.91S WCI  11
SIDNEY         PTCLDY    19  12  74 CALM      29.95R
WOLF POINT     PTCLDY    16  12  84 CALM      29.93S
* BEAVER HILL  N/A       28  23  81 S12        N/A   WCI  18
* CIRCLE       N/A       27  24  88 N/A        N/A
* LINDSAY DVD  N/A       30  25  82 SW2        N/A
* NAVAJO       N/A       21  20  96 NW3        N/A
* PLENTYWOOD A CLEAR     16  14  92 CALM      29.90S
* POPLAR APT   PTCLDY    18  16  92 CALM      29.93R VSB 1
* SACO         N/A       16  14  92 N/A        N/A
$$

MTZ028>042-056>058-191500-
SOUTHCENTRAL AND SOUTHEAST MONTANA
CITY           SKY/WX    TMP DP  RH WIND       PRES   REMARKS
BAKER          CLOUDY    27  21  78 CALM      29.94R
BILLINGS       FAIR      30  18  61 SW17      29.94F WCI  18
LIVINGSTON     MOCLDY    37  21  52 W16       29.93S WCI  28
MILES CITY     PTCLDY    23  19  85 SE7       29.95R WCI  15
* FORSYTH APT  MOCLDY    27  21  78 CALM      29.94S
* LAUREL APT   PTCLDY    28  10  47 SW6        N/A   WCI  21
* ROUNDUP APT  CLEAR     32  19  59 S6         N/A   WCI  26
* ALZADA       N/A       21  17  84 W3         N/A
* HYSHAM       N/A       33  17  52 W4         N/A
* LAME DEER    N/A       33  17  52 W4         N/A
* REED POINT   N/A       17  16  96 N/A        N/A
* ROSCOE HILL  N/A       35   7  31 S9G16      N/A   WCI  28
$$

REGIONAL REPORTS...DAKOTAS
CITY           SKY/WX    TMP DP  RH WIND       PRES   REMARKS
WILLISTON      FOG       21  19  92 CALM      29.93R VSB 1/2
DICKINSON      MOCLDY    28  21  75 CALM      29.90R
BEACH          MOCLDY    27  25  92 W9        29.92S WCI  18
CROSBY         FOG       23  23 100 SW6       29.93R VSB 1    WCI  16
TIOGA          FOG       23  23 100 SW3       29.93S VSB M1/4
WATFORD CITY   CLEAR     19  19 100 CALM      29.91R
BISMARCK       CLOUDY    23  21  92 E3        29.96S
GRAND FORKS    FOG       23  21  92 S10       30.07S VSB 3    WCI  13
FARGO          FOG       25  21  85 S13       30.09S WCI  13
BUFFALO SD     PTCLDY    27  19  72 W9        29.88S WCI  18
RAPID CITY     PTCLDY    23  16  74 CALM      29.98S
$$

REGIONAL REPORTS...WYOMING/IDAHO/WASHINGTON
CITY           SKY/WX    TMP DP  RH WIND       PRES   REMARKS
GILLETTE       CLEAR     27  14  58 S7        29.96F WCI  19
SHERIDAN       PTCLDY    27  12  53 CALM      29.95S
CODY           MOCLDY    34  23  64 CALM      29.96S
YELLOWSTONE LA CLOUDY    23  21  92 CALM      30.06F
SALMON         CLOUDY    27  23  85 CALM      30.06S
MULLAN PASS    LGT SNOW  32  28  85 VRB5      29.84S VSB M1/4 WCI  27
SAND POINT     LGT RAIN  34  34 100 CALM      29.91R VSB 3
SPOKANE        LGT RAIN  39  37  93 SE7       29.86F WCI  34
$$

REGIONAL REPORTS...ALBERTA
CITY           SKY/WX    TMP DP  RH WIND       PRES   REMARKS
CALGARY        MOCLDY    21  16  81 S7        29.68F WCI  12
MEDICINE HAT   PTCLDY    21  19  92 S6        29.82S WCI  13
EDMONTON       FAIR      16  12  84 SE10      29.70F WCI   4
WATERTON GATE  N/A       37  28  70 SW14G20    N/A   WCI  28
CARDSTON       N/A       37  30  76 SW10       N/A   WCI  30
MILK RIVER     N/A       21  19  92 S7         N/A   WCI  12
$$

REGIONAL REPORTS...SASKATCHEWAN
CITY           SKY/WX    TMP DP  RH WIND       PRES   REMARKS
SWIFT CURRENT  CLEAR     18  16  92 S8        29.85S WCI   8
MOOSE JAW      LGT SNOW N/A N/A N/A N2         N/A   VSB 3/4
REGINA         FOG       19  18  96 W7        29.91S VSB 1/2  WCI  10
VAL MARIE      N/A        9   5  84 CALM       N/A
ASSINIBOIA     N/A       12  10  92 NW2        N/A
CORONACH       N/A        7   5  91 W1         N/A

$$




USA.gov is the U.S. government's official web portal to all federal, state and local government web resources and services.